Probability
0 0 0 0 0 0 0 0 0 0 0 0 0 0 0 0 0 0 0 0 0 0 0 0 0 0 0 0 0 0 0 0 0 0 0 0 0 0 0 0 0 0 0
0 0 0 0 0 0 0 0 0 0 0 0 0 0 0 0 0 0 0 0 0 0 0 0 0 0 0 0 0 0 0 0 0 0 0 0 0 0 0 0 0 0 0
0 0 0 0 0 0 0 0 0 0 0 0 0 0 0 0 0 0 0 0 0 0 0 0 0 0 0 0 0 0 0 0 0 0 0 0 0 0 0 0 0 0 0
0 0 0 0 0 0 0 0 0 0 0 0 0 0 0 0 0 0 0 0 0 0 0 0 0 0 0 0 0 0 0 0 0 0 0 0 0 0 0 0 0 0 0
0 0 0 0 0 0 0 0 0 0 0 0 0 0 0 0 0 0 0 0 0 0 0 0 0 0 0 0 0 0 0 0 0 0 0 0 0 0 0 0 0 0 0
0 0 0 0 0 0 0 0 0 0 0 0 0 0 0 0 0 0 0 0 0 0 0 0 0 0 0 0 0 0 0 0 0 0 0 0 0 0 0 0 0 0 0
0 0 0 0 0 0 0 0 0 0 0 0 0 0 0 0 0 0 0 0 0 0 0 0 0 0 0 0 0 0 0 0 0 0 0 0 0 0 0 0 0 0 0
0 0 0 0 0 0 0 0 0 0 0 0 0 0 0 0 0 0 0 0 0 0 0 0 0 0 0 0 0 0 0 0 0 0 0 0 0 0 0 0 0 0 0
0 0 0 0 0 0 0 0 0 0 0 0 0 0 0 0 0 0 0 0 0 0 0 0 0 0 0 0 0 0 0 0 0 0 0 0 0 0 0 0 0 0 0
0 0 0 0 0 0 0 0 0 0 0 0 0 0 0 0 0 0 0 0 0 0 0 0 0 0 0 0 0 0 0 0 0 0 0 0 0 0 0 0 0 0 0
0 0 0 0 0 0 0 0 0 0 0 0 0 0 0 0 0 0 0 0 0 0 0 0 0 0 0 0 0 0 0 0 0 0 0 0 0 0 0 0 0 0 0
0 0 0 0 0 0 0 0 0 0 0 0 0 0 0 0 0 0 0 0 0 0 0 0 0 0 0 0 0 0 0 0 0 0 0 0 0 0 0 0 0 0 0
0 0 0 0 0 0 0 0 0 0 0 0 0 0 0 0 0 0 0 0 0 0 0 0 0 0 0 0 0 0 0 0 0 0 0 0 0 0 0 0 0 0 0
0 0 0 0 0 0 0 0 0 0 0 0 0 0 0 0 0 0 0 0 0 0 0 0 0 0 0 0 0 0 0 0 0 0 0 0 0 0 0 0 0 0 0
0 0 0 0 0 0 0 0 0 0 0 0 0 0 0 0 0 0 0 0 0 0 0 0 0 0 0 0 0 0 0 0 0 0 0 0 0 0 0 0 0 0 0
0 0 0 0 0 0 0 0 0 0 0 0 0 0 0 0 0 0 0 0 0 0 0 0 0 0 0 0 0 0 0 0 0 0 0 0 0 0 0 0 0 0 0
0 0 0 0 0 0 0 0 0 0 0 0 0 0 0 0 0 0 0 0 0 0 0 0 0 0 0 0 0 0 0 0 0 0 0 0 0 0 0 0 0 0 0
0 0 0 0 0 0 0 0 0 0 0 0 0 0 0 0 0 0 0 0 0 0 0 0 0 0 0 0 0 0 0 0 0 0 0 0 0 0 0 0 0 0 0
0 0 0 0 0 0 0 0 0 0 0 0 0 0 0 0 0 0 0 0 0 0 0 0 0 0 0 0 0 0 0 0 0 0 0 0 0 0 0 0 0 0 0
0 0 0 0 0 0 0 0 0 0 0 0 0 0 0 0 0 0 0 0 0 0 0 0 0 0 0 0 0 0 0 0 0 0 0 0 0 0 0 0 0 0 0
0 0 0 0 0 0 0 0 0 0 0 0 0 0 0 0 0 0 0 0 0 0 0 0 0 0 0 0 0 0 0 0 0 0 0 0 0 0 0 0 0 0 0
0 0 0 0 0 0 0 0 0 0 0 0 0 0 0 0 0 0 0 0 0 0 0 0 0 0 0 0 0 0 0 0 0 0 0 0 0 0 0 0 0 0 0
0 0 0 0 0 0 0 0 0 0 0 0 0 0 0 0 0 0 0 0 0 0 0 0 0 0 0 0 0 0 0 0 0 0 0 0 0 0 0 0 0 0 0
0 0 0 0 0 0 0 0 0 0 0 0 0 0 0 0 0 0 0 0 0 0 0 0 0 0 0 0 0 0 0 0 0 0 0 0 0 0 0 0 0 0 0
0 0 0 0 0 0 0 0 0 0 0 0 0 0 0 0 0 0 0 0 0 0 0 0 0 0 0 0 0 0 0 0 0 0 0 0 0 0 0 0 0 0 0
0 0 0 0 0 0 0 0 0 0 0 0 0 0 0 0 0 0 0 0 0 0 0 0 0 0 0 0 0 0 0 0 0 0 0 0 0 0 0 0 0 0 0
Height
5833 5835 5837 5839 5840 5841 5843 5844 5844 5845 5846 5846 5846 5847 5847 5846 5846 5845 5845 5844 5843 5841 5840 5838 5836 5834 5832 5829 5827 5824 5821 5818 5814 5811 5808 5804 5800 5797 5794 5790 5787 5784 5780
5828 5830 5832 5833 5835 5836 5837 5838 5839 5840 5841 5841 5841 5842 5842 5841 5841 5840 5840 5839 5838 5836 5835 5833 5831 5829 5826 5824 5821 5818 5815 5812 5809 5805 5802 5799 5795 5792 5789 5785 5782 5779 5775
5821 5824 5826 5827 5829 5830 5831 5832 5833 5834 5835 5835 5836 5836 5836 5836 5835 5834 5834 5833 5832 5830 5829 5827 5825 5823 5820 5818 5815 5812 5809 5806 5803 5799 5796 5793 5790 5786 5783 5780 5777 5773 5770
5815 5817 5819 5821 5822 5824 5825 5826 5827 5828 5829 5829 5829 5830 5830 5829 5829 5828 5827 5826 5825 5824 5822 5820 5818 5816 5814 5811 5809 5806 5803 5799 5796 5793 5790 5787 5784 5781 5777 5774 5771 5768 5764
5807 5810 5812 5814 5816 5817 5818 5820 5821 5821 5822 5823 5823 5823 5823 5823 5822 5821 5820 5819 5818 5817 5815 5813 5811 5809 5807 5805 5802 5799 5796 5793 5789 5786 5783 5780 5777 5774 5771 5768 5765 5762 5759
5800 5803 5805 5807 5809 5810 5811 5813 5814 5814 5815 5815 5816 5816 5816 5815 5815 5814 5813 5812 5811 5810 5808 5806 5804 5802 5799 5797 5794 5791 5788 5785 5782 5779 5776 5774 5770 5767 5765 5762 5759 5755 5752
5793 5796 5798 5799 5801 5803 5804 5805 5806 5807 5807 5808 5808 5809 5809 5808 5807 5807 5806 5805 5803 5802 5800 5798 5796 5794 5792 5789 5786 5784 5781 5778 5775 5772 5769 5766 5763 5760 5758 5755 5752 5749 5746
5786 5788 5790 5792 5793 5795 5796 5798 5798 5799 5800 5800 5801 5801 5801 5801 5800 5799 5798 5797 5795 5794 5792 5790 5788 5786 5784 5781 5778 5776 5773 5770 5767 5764 5761 5759 5756 5753 5750 5748 5745 5742 5739
5778 5780 5782 5784 5786 5787 5789 5790 5791 5792 5792 5793 5793 5794 5793 5793 5793 5792 5790 5788 5787 5785 5784 5782 5780 5777 5775 5772 5770 5767 5764 5762 5759 5756 5753 5751 5748 5745 5742 5740 5737 5735 5733
5769 5772 5774 5776 5778 5779 5780 5782 5783 5783 5784 5785 5785 5785 5785 5785 5784 5784 5783 5781 5779 5777 5776 5773 5771 5769 5766 5764 5761 5758 5756 5753 5750 5747 5745 5742 5739 5737 5734 5732 5729 5727 5725
5762 5764 5766 5768 5769 5771 5772 5773 5774 5775 5776 5776 5777 5777 5776 5776 5775 5775 5775 5773 5771 5769 5767 5765 5762 5760 5757 5755 5752 5749 5746 5744 5741 5738 5736 5733 5730 5728 5726 5723 5721 5719 5717
5754 5756 5758 5760 5761 5762 5763 5764 5766 5766 5767 5767 5768 5768 5767 5767 5766 5766 5765 5764 5762 5760 5757 5755 5752 5750 5748 5745 5742 5739 5737 5734 5731 5728 5726 5723 5721 5719 5717 5715 5713 5711 5710
5746 5748 5750 5751 5752 5754 5755 5756 5757 5757 5758 5758 5758 5758 5758 5758 5757 5756 5755 5753 5752 5750 5748 5745 5742 5740 5737 5734 5732 5729 5726 5723 5721 5718 5716 5713 5711 5709 5707 5705 5704 5703 5702
5737 5739 5741 5742 5743 5744 5745 5746 5747 5748 5748 5748 5748 5748 5748 5747 5747 5746 5744 5743 5742 5740 5738 5735 5732 5729 5726 5723 5721 5718 5715 5713 5710 5708 5705 5703 5701 5699 5698 5696 5695 5694 5694
5728 5730 5731 5732 5734 5735 5736 5736 5737 5738 5738 5738 5738 5738 5737 5737 5736 5735 5733 5732 5731 5729 5728 5725 5721 5718 5715 5712 5709 5707 5704 5702 5699 5697 5695 5693 5691 5689 5688 5687 5686 5685 5685
5719 5720 5722 5723 5724 5724 5725 5726 5726 5727 5727 5727 5727 5727 5727 5726 5725 5724 5722 5720 5719 5717 5716 5714 5710 5706 5703 5701 5698 5696 5693 5691 5689 5686 5684 5683 5681 5680 5678 5678 5677 5677 5677
5709 5710 5711 5713 5713 5714 5714 5715 5715 5716 5716 5716 5716 5716 5715 5715 5714 5712 5711 5709 5707 5705 5703 5701 5698 5695 5693 5690 5687 5684 5682 5680 5678 5676 5674 5672 5671 5670 5669 5669 5669 5669 5669
5698 5699 5700 5701 5702 5703 5703 5704 5704 5704 5704 5705 5705 5704 5704 5703 5702 5700 5699 5697 5695 5693 5691 5689 5687 5684 5681 5678 5676 5674 5671 5669 5667 5665 5664 5663 5662 5661 5660 5660 5660 5661 5661
5687 5688 5689 5690 5690 5691 5692 5692 5692 5692 5692 5693 5693 5692 5692 5691 5690 5688 5687 5685 5683 5681 5679 5677 5675 5673 5670 5667 5665 5663 5660 5658 5657 5655 5654 5653 5652 5652 5652 5652 5652 5652 5654
5675 5676 5676 5677 5678 5678 5679 5679 5680 5680 5680 5680 5680 5680 5679 5679 5678 5677 5675 5674 5672 5670 5668 5666 5664 5661 5659 5656 5654 5652 5650 5648 5647 5646 5645 5644 5643 5643 5643 5644 5644 5645 5646
5662 5662 5663 5664 5665 5665 5666 5666 5667 5667 5667 5667 5667 5667 5667 5667 5666 5665 5664 5662 5660 5659 5657 5655 5653 5650 5648 5646 5644 5642 5640 5638 5637 5636 5636 5635 5635 5635 5635 5636 5636 5637 5638
5647 5648 5649 5650 5651 5651 5652 5652 5653 5654 5654 5655 5655 5655 5655 5654 5654 5653 5652 5650 5649 5647 5646 5644 5642 5640 5638 5636 5634 5632 5630 5629 5628 5628 5627 5627 5626 5627 5627 5628 5629 5630 5631
5633 5633 5634 5635 5636 5637 5637 5638 5639 5640 5641 5641 5641 5642 5642 5641 5641 5641 5640 5638 5637 5636 5635 5633 5631 5629 5628 5626 5624 5623 5621 5621 5620 5619 5619 5618 5619 5619 5620 5620 5621 5623 5624
5617 5617 5618 5619 5621 5622 5622 5624 5625 5626 5627 5627 5628 5628 5629 5629 5629 5628 5628 5627 5626 5625 5623 5622 5621 5619 5618 5616 5615 5614 5613 5612 5611 5611 5611 5611 5611 5612 5612 5613 5614 5615 5616
5600 5601 5602 5603 5605 5606 5608 5609 5610 5612 5613 5614 5615 5615 5616 5616 5616 5616 5616 5615 5615 5614 5613 5611 5610 5609 5608 5607 5606 5605 5604 5604 5603 5603 5603 5603 5604 5604 5605 5606 5607 5608 5608
5583 5584 5586 5588 5589 5591 5592 5594 5596 5597 5599 5600 5601 5602 5603 5604 5604 5604 5604 5604 5603 5603 5602 5601 5600 5600 5599 5598 5597 5596 5596 5595 5595 5595 5595 5596 5596 5597 5598 5598 5599 5600 5601
Wind_Speed
33 32 30 29 28 27 27 26 25 24 24 23 23 23 22 22 23 23 24 24 25 26 26 27 28 29 29 30 31 32 33 34 35 35 35 34 34 33 32 32 31 31 30
35 34 32 31 31 30 29 28 28 27 26 26 26 25 25 25 25 26 26 26 27 28 28 29 30 31 31 32 33 34 35 36 37 36 36 35 34 33 33 32 32 31 30
37 36 35 34 33 32 31 30 30 29 29 28 28 28 28 28 28 29 29 29 30 30 30 31 32 32 33 34 35 36 37 38 38 37 36 36 34 33 33 32 32 31 31
39 38 37 36 35 34 33 32 31 31 31 31 30 30 30 31 31 31 32 32 32 33 33 33 34 34 35 36 37 38 38 39 38 37 36 36 34 34 33 33 32 32 31
41 40 39 38 37 36 35 34 34 33 33 33 33 32 32 33 33 34 34 34 34 34 35 35 35 36 37 38 39 40 40 39 38 37 36 36 35 34 34 33 33 32 31
43 42 41 40 38 38 37 36 35 35 35 34 34 34 34 34 34 35 35 35 36 36 36 36 36 37 39 40 40 40 39 38 38 37 36 36 36 35 34 33 33 32 31
44 44 43 42 40 39 38 37 37 36 36 35 34 34 35 35 35 36 36 36 37 37 37 37 38 39 40 41 41 40 39 39 39 38 37 37 36 36 35 34 33 32 31
44 44 44 42 41 41 39 39 38 37 36 36 35 35 35 35 35 35 36 37 38 38 38 39 40 41 42 42 42 42 41 40 40 39 38 38 37 36 35 34 34 32 30
44 44 44 43 42 41 40 39 38 37 37 36 36 36 36 36 36 36 37 38 39 39 40 41 42 43 43 43 43 42 42 42 41 40 39 38 38 37 36 35 34 32 30
43 43 43 42 42 42 41 39 38 38 37 37 37 38 37 37 36 36 37 38 39 40 41 42 43 43 44 44 43 43 43 42 41 40 40 40 39 38 37 35 34 32 31
42 41 41 40 39 39 38 38 38 38 37 37 37 37 37 37 38 39 39 40 40 41 42 43 44 44 44 44 44 44 43 43 43 42 41 41 40 39 37 36 34 32 30
39 39 39 39 38 37 37 37 37 36 37 38 38 38 38 39 40 40 41 41 42 43 44 44 44 45 45 45 45 45 45 44 44 43 42 41 40 38 37 35 34 32 30
36 37 38 38 38 38 38 38 38 37 38 39 39 39 39 40 41 42 43 43 43 44 44 45 45 45 46 46 46 46 45 45 44 43 42 40 39 38 37 35 33 31 29
37 37 37 38 39 40 40 38 38 38 39 39 39 39 40 41 42 43 44 45 45 44 45 45 46 47 48 48 47 47 46 45 44 43 41 40 39 37 36 34 32 30 28
38 39 39 38 39 39 40 40 39 39 39 40 40 41 42 43 44 44 45 45 46 46 46 46 47 47 48 48 47 46 45 44 43 42 41 40 38 36 35 33 31 29 27
35 38 40 40 40 40 41 41 41 42 42 41 41 42 43 43 44 45 46 46 47 47 47 47 47 47 47 47 46 46 45 44 43 41 40 39 37 35 33 31 30 28 27
37 37 39 40 41 41 41 41 41 42 42 42 42 42 43 44 44 46 46 47 47 47 47 46 47 46 46 46 45 44 44 42 41 40 38 37 35 33 32 30 29 28 27
40 40 41 41 42 43 43 43 43 43 43 43 43 44 45 45 46 46 46 46 45 45 45 44 44 45 45 44 44 43 41 40 39 38 36 34 33 32 31 29 28 27 27
43 44 44 44 45 45 45 45 45 45 45 45 45 45 45 45 45 45 44 44 43 43 43 43 43 43 43 42 42 41 40 38 37 35 34 33 32 31 29 28 27 27 27
46 47 46 47 47 47 47 47 47 47 46 46 45 45 44 43 43 43 43 42 42 42 42 42 42 42 41 41 40 39 38 36 35 34 33 32 30 29 28 27 26 26 26
48 49 48 48 48 48 48 48 47 47 46 45 45 44 44 43 43 43 42 41 41 42 41 41 40 40 39 38 38 37 35 34 33 32 31 30 29 28 28 27 26 25 25
50 50 50 50 50 50 50 49 48 48 47 46 45 44 44 43 43 42 42 41 41 41 40 40 39 38 37 37 35 34 33 32 31 30 29 28 28 27 26 26 26 25 25
53 52 52 51 51 51 50 50 49 48 47 46 45 44 43 42 42 41 41 41 40 39 39 38 37 36 35 34 33 32 30 29 29 28 28 27 26 26 26 26 25 25 26
54 53 53 52 51 50 49 49 48 47 46 45 44 44 43 42 41 41 40 39 39 38 37 36 35 34 33 32 31 30 29 29 28 27 27 26 26 26 26 25 25 26 26
53 53 52 51 51 50 49 48 48 47 45 44 44 43 42 41 41 40 39 38 38 36 35 34 34 33 31 30 29 28 28 27 27 26 25 26 25 25 26 25 25 26 26
52 52 51 50 50 49 49 48 47 46 45 44 43 42 41 41 40 39 38 37 36 35 34 33 32 31 30 29 28 27 27 26 25 25 25 25 25 25 25 25 26 26 27
Wind_Direction
234 235 237 238 241 242 244 245 247 249 252 256 258 260 263 266 269 273 277 280 283 286 289 292 295 298 301 304 306 309 311 313 314 314 314 313 312 312 312 312 314 315 315
234 236 238 240 241 243 244 246 248 251 254 256 258 261 264 267 270 273 277 280 283 286 290 292 295 297 298 301 304 306 308 310 311 311 311 310 310 309 310 311 312 313 313
233 236 238 240 242 244 246 247 249 252 254 257 259 261 264 267 270 273 276 279 283 286 289 291 294 295 297 300 302 304 306 308 309 309 308 307 307 307 307 308 309 310 311
234 236 238 241 243 245 247 248 250 253 255 258 260 263 265 268 271 274 277 280 283 286 289 291 293 294 296 299 301 303 305 306 306 306 305 305 305 304 305 306 307 308 309
234 236 239 241 242 245 247 249 252 254 257 259 262 264 267 269 272 274 277 280 283 286 289 291 291 293 296 298 300 301 303 303 303 304 303 302 302 302 302 303 305 305 306
235 238 239 241 243 246 248 250 252 255 258 260 263 265 267 270 272 275 278 281 283 286 289 290 291 292 295 297 298 300 301 301 301 301 301 300 300 300 300 301 302 302 303
235 238 240 241 243 246 249 251 253 255 258 260 263 265 268 270 273 276 279 282 283 286 288 289 290 292 295 296 298 298 299 299 299 299 298 298 298 298 298 298 299 300 300
237 240 242 243 244 246 249 251 253 256 258 261 264 267 269 271 273 276 279 282 285 287 288 289 290 293 295 296 296 296 297 297 296 296 296 296 296 296 295 296 297 297 297
238 240 241 242 244 247 249 252 254 257 259 262 265 267 269 271 273 277 280 282 284 286 288 289 290 292 294 294 295 295 295 294 294 294 294 294 294 293 293 294 294 294 294
238 240 242 244 247 247 249 252 255 258 260 263 265 268 270 272 274 277 279 282 284 285 286 287 289 290 292 293 293 293 292 292 292 291 291 291 291 291 291 291 291 291 291
241 243 246 246 247 249 252 254 257 259 262 265 267 269 271 273 276 279 280 281 283 284 286 287 288 289 290 291 292 291 291 290 290 290 289 289 289 289 288 288 288 287 286
244 246 246 247 250 253 254 256 258 262 265 267 269 270 272 275 278 280 281 283 284 286 287 289 289 289 289 290 291 290 289 289 289 288 288 288 288 287 286 286 285 283 281
246 247 248 249 252 255 257 259 262 266 267 268 269 271 274 276 278 280 282 284 285 286 288 289 289 289 289 289 290 289 289 288 288 287 287 287 286 285 285 284 282 279 277
247 249 251 254 256 257 259 262 264 265 267 268 269 272 275 276 279 282 284 285 286 286 287 288 288 289 289 289 289 288 288 287 288 287 287 286 284 283 282 281 278 275 272
253 253 255 258 260 261 262 265 265 266 267 269 271 274 277 278 281 283 285 286 286 286 286 286 286 287 288 288 287 287 287 286 286 286 285 285 283 282 280 277 274 270 267
257 258 257 259 261 263 265 267 267 269 269 271 274 277 278 280 282 283 284 285 285 285 285 285 286 286 286 287 286 286 286 286 286 285 284 282 281 280 276 274 270 267 264
259 259 259 260 262 264 266 267 267 269 271 273 275 277 278 280 282 282 283 284 284 284 285 285 286 286 286 286 286 286 286 286 285 284 282 280 278 276 274 271 268 266 262
261 262 262 263 263 265 267 268 270 271 273 274 276 277 279 280 281 282 282 283 283 284 285 285 285 285 285 285 285 285 285 284 284 283 281 278 276 273 271 268 265 263 260
265 265 265 265 266 267 269 270 271 271 273 274 276 277 278 279 280 280 281 282 283 284 284 284 285 285 286 286 285 285 284 283 282 280 278 276 273 270 268 265 262 260 257
266 266 266 266 267 267 268 269 270 270 271 272 274 276 276 277 278 280 281 282 283 283 284 284 285 286 286 286 285 284 282 280 279 277 275 273 270 267 265 263 261 258 255
267 266 266 265 266 266 267 267 268 269 270 270 272 273 274 275 277 279 280 281 282 282 283 284 285 285 285 285 285 284 281 279 277 274 273 271 268 266 264 261 259 257 253
267 266 266 265 265 265 266 266 267 268 268 269 270 271 273 274 276 277 278 279 280 281 281 282 283 284 284 284 283 282 280 278 275 273 271 269 267 264 261 260 258 255 253
267 266 266 266 266 266 266 266 266 266 267 268 268 269 271 272 274 275 276 277 278 279 280 282 282 282 282 282 281 279 277 276 273 272 270 268 265 263 261 260 256 255 255
267 267 266 266 266 265 265 265 265 265 265 265 266 267 268 270 271 273 274 275 277 279 280 280 280 281 280 279 278 276 275 274 272 271 269 267 265 263 261 259 257 256 256
267 266 265 265 264 264 263 263 263 263 263 263 264 265 266 268 269 271 272 274 275 277 277 278 278 278 277 276 275 274 273 273 272 270 269 268 265 263 261 260 259 258 259
266 265 264 263 262 262 262 261 261 261 260 261 262 263 264 265 267 269 271 272 273 274 274 275 275 275 274 273 273 273 272 272 271 269 269 268 265 263 262 260 260 261 262